This is the latest recevied weather packets stored in our database for station/object ES2ADF-5. If no packets are shown the sender has not sent any weather packets the latest 10 day(s).
| Time | Temp. | Humidity | Pressure | Rain* | Wind** | Luminosity | Snow |
|---|---|---|---|---|---|---|---|
| 1777809170 | 16.67° C | 56% | 1007.3 hPa | 0 mm | - | - | - |
| 1777808869 | 16.67° C | 57% | 1007.5 hPa | 0 mm | - | - | - |
| 1777808569 | 16.11° C | 58% | 1007.5 hPa | 0 mm | - | - | - |
| 1777808269 | 15.56° C | 58% | 1007.6 hPa | 0 mm | - | - | - |
| 1777807968 | 15.56° C | 57% | 1007.4 hPa | 0 mm | - | - | - |
| 1777807668 | 16.11° C | 57% | 1007.5 hPa | 0 mm | - | - | - |
| 1777807368 | 16.11° C | 56% | 1007.4 hPa | 0 mm | - | - | - |
| 1777807068 | 16.11° C | 56% | 1007.7 hPa | 0 mm | - | - | - |
| 1777806767 | 16.67° C | 55% | 1007.5 hPa | 0 mm | - | - | - |
| 1777806467 | 17.22° C | 55% | 1007.5 hPa | 0 mm | - | - | - |
| 1777806168 | 17.22° C | 55% | 1007.6 hPa | 0 mm | - | - | - |
| 1777805866 | 17.78° C | 55% | 1007.6 hPa | 0 mm | - | - | - |
| 1777805566 | 17.78° C | 55% | 1007.5 hPa | 0 mm | - | - | - |
| 1777805266 | 17.78° C | 54% | 1007.3 hPa | 0 mm | - | - | - |
| 1777804966 | 17.78° C | 55% | 1007.4 hPa | 0 mm | - | - | - |
| 1777804707 | 17.78° C | 56% | 1007.4 hPa | 0 mm | - | - | - |
| 1777804666 | 17.78° C | 56% | 1007.4 hPa | 0 mm | - | - | - |
| 1777804365 | 17.78° C | 57% | 1007.3 hPa | 0 mm | - | - | - |
| 1777804069 | 17.78° C | 57% | 1007.4 hPa | 0 mm | - | - | - |
| 1777803764 | 17.22° C | 58% | 1007.4 hPa | 0 mm | - | - | - |
| 1777803464 | 16.67° C | 58% | 1007.5 hPa | 0 mm | - | - | - |
| 1777803164 | 16.67° C | 58% | 1007.5 hPa | 0 mm | - | - | - |
| 1777802864 | 16.11° C | 60% | 1007.3 hPa | 0 mm | - | - | - |
| 1777802563 | 16.11° C | 60% | 1007.4 hPa | 0 mm | - | - | - |
| 1777802263 | 16.11° C | 60% | 1007.3 hPa | 0 mm | - | - | - |
* Rain latest hour (hover to see other rain measurements)
** Current wind speed in m/s (hover to see current wind gust speed)